Weather History for Athens, TX

Change the Weather History Date:

Wednesday, March 26, 2014

  Actual Average (KTYR) Record (KTYR)
Temperature  
Mean Temperature 48 °F 59 °F  
Max Temperature 60 °F 69 °F 89 °F (1905)
Min Temperature 35 °F 49 °F 22 °F (1955)
Degree Days  
Heating Degree Days 18 7  
Month to date heating degree days 240  
Since 1 July heating degree days 2132  
Cooling Degree Days 0 1  
Month to date cooling degree days 14  
Year to date cooling degree days 26  
Moisture  
Dew Point 37 °F    
Average Humidity 62    
Maximum Humidity 87    
Minimum Humidity 39    
Precipitation  
Precipitation 0.00 in 0.12 in 1.79 in (1977)
Month to date precipitation 3.56  
Year to date precipitation 10.43  
Snow  
Snow 0.00 in - - ()
Month to date snowfall  
Since 1 July snowfall  
Snow Depth -    
Sea Level Pressure  
Sea Level Pressure 30.12 in    
Wind  
Wind Speed 6 mph (SSE)    
Max Wind Speed 21 mph    
Max Gust Speed 28 mph    
Visibility 10 miles    
Events Rain    
T = Trace of Precipitation, MM = Missing Value Source: NWS Daily Summary

Daily Weather History Graph

Daily Weather History Graph

Search for Another Location

Airport:

Trip Planner

Search our weather history database for the weather conditions in past years. The results will help you decide how hot, cold, wet, or windy it might be!

Date:

Astronomy

Mar. 26, 2014 Rise Set
Actual Time 7:19 AM CDT 7:39 PM CDT
Civil Twilight 6:54 AM CDT 8:03 PM CDT
Nautical Twilight 6:26 AM CDT 8:32 PM CDT
Astronomical Twilight 5:57 AM CDT 9:01 PM CDT
Moon 4:13 AM CDT (3/26) 3:32 PM CDT (3/26)
Length of Visible Light 13h 08m
Length of Day
12h 19m
Waning Crescent, 21% of the Moon is Illuminated
Mar 26
Waning Crescent
Mar 30
New
Apr 7
First Quarter
Apr 15
Full
Apr 22
Last Quarter

Hourly Weather History & Observations

Time (CDT) Temp. Windchill Dew Point Humidity Pressure Visibility Wind Dir Wind Speed Gust Speed Precip Events Conditions
12:15 AM 44.6 °F - 30.2 °F 57% 30.24 in 10.0 mi Calm Calm - N/A   Clear
12:35 AM 44.6 °F - 30.2 °F 57% 30.22 in 10.0 mi Calm Calm - N/A   Clear
12:55 AM 44.6 °F 43.1 °F 30.2 °F 57% 30.22 in 10.0 mi ENE 3.5 mph - N/A   Clear
1:15 AM 42.8 °F - 30.2 °F 61% 30.22 in 10.0 mi Calm Calm - N/A   Clear
1:35 AM 42.8 °F - 32.0 °F 66% 30.21 in 10.0 mi Calm Calm - N/A   Clear
1:55 AM 42.8 °F - 32.0 °F 66% 30.20 in 10.0 mi Calm Calm - N/A   Clear
2:15 AM 42.8 °F - 30.2 °F 61% 30.20 in 10.0 mi Calm Calm - N/A   Clear
2:35 AM 42.8 °F - 30.2 °F 61% 30.20 in 10.0 mi Calm Calm - N/A   Clear
2:55 AM 41.0 °F - 32.0 °F 70% 30.20 in 10.0 mi Calm Calm - N/A   Clear
3:15 AM 41.0 °F - 30.2 °F 65% 30.20 in 10.0 mi Calm Calm - N/A   Clear
3:35 AM 41.0 °F - 32.0 °F 70% 30.20 in 10.0 mi Calm Calm - N/A   Clear
3:55 AM 37.4 °F - 30.2 °F 75% 30.20 in 10.0 mi Calm Calm - N/A   Clear
4:15 AM 37.4 °F - 30.2 °F 75% 30.20 in 10.0 mi Calm Calm - N/A   Clear
4:35 AM 37.4 °F - 32.0 °F 81% 30.20 in 10.0 mi Calm Calm - N/A   Clear
4:55 AM 35.6 °F - 32.0 °F 87% 30.20 in 10.0 mi Calm Calm - N/A   Clear
5:15 AM 35.6 °F - 32.0 °F 87% 30.20 in 10.0 mi Calm Calm - N/A   Clear
5:35 AM 37.4 °F - 32.0 °F 81% 30.20 in 10.0 mi Calm Calm - N/A   Clear
5:55 AM 39.2 °F 35.9 °F 32.0 °F 75% 30.20 in 10.0 mi ESE 4.6 mph - N/A   Clear
6:15 AM 41.0 °F - 32.0 °F 70% 30.20 in 10.0 mi Calm Calm - N/A   Clear
6:35 AM 41.0 °F 39.0 °F 32.0 °F 70% 30.20 in 10.0 mi SE 3.5 mph - N/A   Clear
6:55 AM 42.8 °F 39.3 °F 30.2 °F 61% 30.20 in 10.0 mi SE 5.8 mph - N/A   Clear
7:15 AM 41.0 °F 37.1 °F 30.2 °F 65% 30.19 in 10.0 mi ESE 5.8 mph - N/A   Clear
7:35 AM 41.0 °F 38.0 °F 30.2 °F 65% 30.19 in 10.0 mi ESE 4.6 mph - N/A   Clear
7:55 AM 42.8 °F 40.1 °F 30.2 °F 61% 30.19 in 10.0 mi ESE 4.6 mph - N/A   Scattered Clouds
8:15 AM 44.6 °F 42.2 °F 32.0 °F 61% 30.20 in 10.0 mi SE 4.6 mph - N/A   Mostly Cloudy
8:35 AM 44.6 °F 42.2 °F 32.0 °F 61% 30.20 in 10.0 mi SE 4.6 mph - N/A   Overcast
8:55 AM 48.2 °F - 32.0 °F 54% 30.19 in 10.0 mi SE 6.9 mph - N/A   Overcast
9:15 AM 50.0 °F - 32.0 °F 50% 30.18 in 10.0 mi SE 9.2 mph - N/A   Overcast
9:35 AM 50.0 °F - 32.0 °F 50% 30.20 in 10.0 mi SSE 8.1 mph - N/A   Overcast
9:55 AM 50.0 °F - 32.0 °F 50% 30.20 in 10.0 mi SE 9.2 mph - N/A   Overcast
10:15 AM 50.0 °F - 32.0 °F 50% 30.21 in 10.0 mi SSE 8.1 mph - N/A   Overcast
10:35 AM 51.8 °F - 33.8 °F 50% 30.21 in 10.0 mi SSE 5.8 mph - N/A   Overcast
10:55 AM 51.8 °F - 33.8 °F 50% 30.21 in 10.0 mi SSE 10.4 mph 19.6 mph N/A Rain Light Rain
11:15 AM 51.8 °F - 33.8 °F 50% 30.20 in 10.0 mi SSE 11.5 mph - N/A   Overcast
11:35 AM 51.8 °F - 33.8 °F 50% 30.21 in 10.0 mi South 10.4 mph 16.1 mph N/A   Overcast
11:55 AM 51.8 °F - 35.6 °F 54% 30.20 in 10.0 mi SSE 9.2 mph 17.3 mph N/A   Overcast
12:15 PM 51.8 °F - 35.6 °F 54% 30.20 in 10.0 mi SSE 10.4 mph 16.1 mph N/A Rain Rain
12:35 PM 50.0 °F - 41.0 °F 71% 30.17 in 10.0 mi SE 6.9 mph - N/A Rain Light Rain
12:55 PM 51.8 °F - 41.0 °F 67% 30.15 in 10.0 mi SE 9.2 mph - N/A   Overcast
1:15 PM 53.6 °F - 39.2 °F 58% 30.13 in 10.0 mi SE 11.5 mph 18.4 mph N/A   Overcast
1:35 PM 55.4 °F - 37.4 °F 51% 30.11 in 10.0 mi SE 11.5 mph 17.3 mph N/A   Overcast
1:55 PM 59.0 °F - 39.2 °F 48% 30.09 in 10.0 mi SSE 16.1 mph - N/A   Mostly Cloudy
2:15 PM 60.8 °F - 35.6 °F 39% 30.08 in 10.0 mi SSE 18.4 mph 26.5 mph N/A   Mostly Cloudy
2:35 PM 60.8 °F - 37.4 °F 42% 30.07 in 10.0 mi SSE 16.1 mph 24.2 mph N/A   Overcast
2:55 PM 60.8 °F - 37.4 °F 42% 30.06 in 10.0 mi SSE 12.7 mph 21.9 mph N/A   Overcast
3:15 PM 59.0 °F - 37.4 °F 45% 30.06 in 10.0 mi SSE 12.7 mph 19.6 mph N/A   Overcast
3:35 PM 59.0 °F - 37.4 °F 45% 30.06 in 10.0 mi SSE 11.5 mph 16.1 mph N/A   Overcast
3:55 PM 59.0 °F - 39.2 °F 48% 30.05 in 10.0 mi SSE 10.4 mph - N/A   Overcast
4:15 PM 59.0 °F - 41.0 °F 51% 30.04 in 10.0 mi South 20.7 mph 25.3 mph N/A   Overcast
4:35 PM 59.0 °F - 42.8 °F 55% 30.04 in 10.0 mi SSE 17.3 mph 27.6 mph N/A   Overcast
4:55 PM 59.0 °F - 44.6 °F 59% 30.02 in 10.0 mi SSE 16.1 mph 23.0 mph N/A   Overcast
5:15 PM 59.0 °F - 44.6 °F 59% 30.02 in 10.0 mi South 18.4 mph - N/A   Overcast
5:35 PM 59.0 °F - 44.6 °F 59% 30.01 in 10.0 mi South 13.8 mph 21.9 mph N/A   Overcast
5:55 PM 59.0 °F - 44.6 °F 59% 30.01 in 10.0 mi South 17.3 mph 23.0 mph N/A   Overcast
6:15 PM 59.0 °F - 44.6 °F 59% 30.01 in 10.0 mi South 11.5 mph 20.7 mph N/A   Overcast
6:35 PM 59.0 °F - 44.6 °F 59% 30.01 in 10.0 mi South 15.0 mph 21.9 mph N/A   Overcast
6:55 PM 59.0 °F - 44.6 °F 59% 29.99 in 10.0 mi SSE 12.7 mph 18.4 mph N/A   Overcast
7:15 PM 59.0 °F - 44.6 °F 59% 30.00 in 10.0 mi SSE 11.5 mph 19.6 mph N/A   Overcast
7:35 PM 57.2 °F - 44.6 °F 63% 29.99 in 10.0 mi South 15.0 mph 21.9 mph N/A   Overcast
7:55 PM 57.2 °F - 44.6 °F 63% 29.99 in 10.0 mi SSE 11.5 mph 17.3 mph N/A   Overcast
8:15 PM 57.2 °F - 44.6 °F 63% 30.00 in 10.0 mi South 12.7 mph 18.4 mph N/A   Overcast
8:35 PM 57.2 °F - 44.6 °F 63% 29.99 in 10.0 mi SSE 12.7 mph 19.6 mph N/A   Overcast
8:55 PM 55.4 °F - 44.6 °F 67% 29.99 in 10.0 mi SSE 17.3 mph 20.7 mph N/A   Overcast
9:15 PM 55.4 °F - 46.4 °F 72% 29.99 in 10.0 mi SSE 12.7 mph 24.2 mph N/A   Overcast
9:35 PM 55.4 °F - 46.4 °F 72% 30.00 in 10.0 mi SSE 13.8 mph 19.6 mph N/A   Overcast
9:55 PM 55.4 °F - 46.4 °F 72% 30.00 in 10.0 mi South 12.7 mph 20.7 mph N/A   Overcast
10:15 PM 55.4 °F - 46.4 °F 72% 30.00 in 10.0 mi SSE 17.3 mph 21.9 mph N/A   Overcast
10:35 PM 55.4 °F - 46.4 °F 72% 30.00 in 10.0 mi SSE 15.0 mph 24.2 mph N/A   Overcast
10:55 PM 55.4 °F - 46.4 °F 72% 30.00 in 10.0 mi South 11.5 mph 19.6 mph N/A   Overcast
11:15 PM 53.6 °F - 46.4 °F 77% 30.00 in 10.0 mi SSE 10.4 mph 17.3 mph N/A   Overcast
11:35 PM 53.6 °F - 46.4 °F 77% 29.99 in 10.0 mi South 11.5 mph 20.7 mph N/A   Overcast
11:55 PM 53.6 °F - 46.4 °F 77% 29.98 in 10.0 mi SSE 15.0 mph 20.7 mph N/A   Overcast